Location: Beacon Field Observatory
(38.7700°N, 77.0829°W)
Time: 15:55:29
(UTC-04:00)

OTV 5 (USA 277) - Visible Passes

Search period start: 22 April 2019 00:00
Search period end: 02 May 2019 00:00
Orbit: 309 x 326 km, 54.5° (Epoch: 21 April)

Date Brightness Start Highest point End Pass type
(mag) Time Alt. Az. Time Alt. Az. Time Alt. Az.
22 Apr ? 04:51:37 12° NW 04:53:57 49° NE 04:56:33 10° ESE visible
22 Apr ? 21:10:20 10° SSW 21:12:28 38° SSE 21:12:28 38° SSE visible
23 Apr ? 05:07:53 33° W 05:08:40 44° SW 05:11:12 10° SSE visible
23 Apr ? 21:24:58 10° WSW 21:27:39 51° NW 21:29:32 17° NNE visible
24 Apr ? 21:40:23 10° W 21:42:30 20° NW 21:44:37 10° NNE visible
25 Apr ? 20:20:05 10° SW 20:22:49 85° SE 20:25:32 10° NE visible
25 Apr ? 21:57:07 10° NW 21:57:31 10° NNW 21:57:53 10° NNW visible
26 Apr ? 20:35:06 10° WSW 20:37:35 30° NW 20:40:03 10° NNE visible
27 Apr ? 20:50:56 10° WNW 20:52:30 14° NNW 20:54:05 10° N visible
